Powrót do katalogu

STARLINK-38293

AktywnyŁącznośćSSO
NORAD 100387·PAYLOAD·🇺🇸 United States

Wystrzelony Aug 19, 2026 z Vandenberg Space Force Base

Loading…

Następne Przeloty (najbliższe 24 godziny)

TLE

ŚwieżeSource: Space-Track

Epoka: Sep 14, 2026, 14:27 UTC

1 A0387U 26190S   26257.60235538 -.01000371  00000-0 -84659-2 0  9998
2 A0387  97.2837 111.6133 0002602 304.6611  55.4407 15.72058176  5443

Śledź STARLINK-38293 w czasie rzeczywistym z AllMySat

Download on the App Store